This is the latest recevied weather packets stored in our database for station/object KV9E. If no packets are shown the sender has not sent any weather packets the latest 10 day(s).
| Time | Temp. | Humidity | Pressure | Rain* | Wind** | Luminosity | Snow |
|---|---|---|---|---|---|---|---|
| 1777639483 | 8.33° C | 78% | 1014.5 hPa | 0 mm | - | 26 W/m² | - |
| 1777639179 | 7.78° C | 77% | 1014.6 hPa | 0 mm | - | 49 W/m² | - |
| 1777638876 | 7.78° C | 77% | 1014.4 hPa | 0 mm | - | 26 W/m² | - |
| 1777638571 | 7.78° C | 77% | 1014.4 hPa | 0 mm | - | 23 W/m² | - |
| 1777638268 | 7.78° C | 74% | 1014.4 hPa | 0 mm | - | 22 W/m² | - |
| 1777637964 | 7.78° C | 74% | 1014.4 hPa | 0 mm | - | 22 W/m² | - |
| 1777637661 | 7.22° C | 75% | 1014.2 hPa | 0 mm | - | 22 W/m² | - |
| 1777637358 | 7.22° C | 74% | 1014.2 hPa | 0 mm | - | 21 W/m² | - |
| 1777637055 | 7.22° C | 74% | 1014.1 hPa | 0 mm | - | 20 W/m² | - |
| 1777636750 | 7.22° C | 76% | 1014.3 hPa | 0 mm | - | 19 W/m² | - |
| 1777636447 | 6.67° C | 76% | 1014.1 hPa | 0 mm | - | 18 W/m² | - |
| 1777636143 | 6.67° C | 77% | 1014.1 hPa | 0 mm | - | 18 W/m² | - |
| 1777635838 | 6.67° C | 79% | 1014 hPa | 0 mm | - | 17 W/m² | - |
| 1777635535 | 6.67° C | 77% | 1014.1 hPa | 0 mm | - | 16 W/m² | - |
| 1777635231 | 6.67° C | 78% | 1013.7 hPa | 0 mm | - | 15 W/m² | - |
| 1777634928 | 6.11° C | 77% | 1013.7 hPa | 0 mm | - | 13 W/m² | - |
| 1777634625 | 6.11° C | 79% | 1013.7 hPa | 0 mm | - | 12 W/m² | - |
| 1777634322 | 6.11° C | 81% | 1013.7 hPa | 0 mm | - | 10 W/m² | - |
| 1777634018 | 6.11° C | 79% | 1013.6 hPa | 0 mm | - | 8 W/m² | - |
| 1777633715 | 6.11° C | 79% | 1013.7 hPa | 0 mm | - | 6 W/m² | - |
| 1777633414 | 6.67° C | 79% | 1013.7 hPa | 0 mm | - | 5 W/m² | - |
| 1777633111 | 6.67° C | 75% | 1013.5 hPa | 0 mm | - | 3 W/m² | - |
| 1777632807 | 6.67° C | 75% | 1013.4 hPa | 0 mm | - | 2 W/m² | - |
| 1777632503 | 6.67° C | 76% | 1013.6 hPa | 0 mm | - | 1 W/m² | - |
| 1777632201 | 6.67° C | 77% | 1013.6 hPa | 0 mm | - | 1 W/m² | - |
* Rain latest hour (hover to see other rain measurements)
** Current wind speed in m/s (hover to see current wind gust speed)